This demonstration page uses our WeatherBlox Daily Observations layout. Learn more.

Left ArrowRight Arrow

40.92945, -100.16068

Hourly Observations for March 26, 2021

Temp ( °F °C ) Dew Point ( °F °C ) Humidity (%) Winds ( mph kmh ) Pressure ( in mb ) Visibility ( mi km ) Precip ( " mm )
12:15 am 00:15 Clear 39 4 35 1.5 84 84 S 12 19 29.88 1012 10 16 N/A
12:35 am 00:35 Clear 39 3.7 34 1.2 84 84 S 10 17 29.88 1012 10 16 N/A
12:55 am 00:55 Clear 38 3.4 34 1 84 84 SSE 8 13 29.89 1012 10 16 N/A
1:15 am 01:15 Clear 38 3.1 34 1 86 86 SSE 8 13 29.89 1012 10 16 N/A
1:35 am 01:35 Clear 37 2.8 33 0.7 86 86 SSE 8 13 29.88 1012 10 16 N/A
1:55 am 01:55 Clear 36 2.4 33 0.5 87 87 SSE 9 15 29.88 1012 10 16 N/A
2:15 am 02:15 Clear 37 2.5 33 0.6 87 87 SSE 9 15 29.87 1012 10 16 N/A
2:35 am 02:35 Clear 36 2.2 33 0.5 89 89 SSE 8 13 29.88 1012 10 16 N/A
2:55 am 02:55 Clear 36 2.1 33 0.4 89 89 SSE 9 15 29.90 1012 10 16 N/A
3:15 am 03:15 Clear 37 2.5 33 0.4 86 86 SSE 9 15 29.89 1012 10 16 N/A
3:35 am 03:35 Clear 36 2 32 0.2 88 88 SSE 10 17 29.90 1012 10 16 N/A
3:55 am 03:55 Clear 36 2 32 0.2 88 88 SSE 9 15 29.89 1012 10 16 N/A
4:15 am 04:15 Clear 36 2 32 0.2 88 88 SSE 7 11 29.89 1012 10 16 N/A
4:35 am 04:35 Clear 35 1.8 32 0.2 89 89 S 10 17 29.89 1012 10 16 N/A
4:55 am 04:55 Clear 35 1.6 32 0.1 90 90 SSE 8 13 29.89 1012 10 16 N/A
5:15 am 05:15 Clear 35 1.5 32 0.2 91 91 SSE 5 7 29.89 1012 10 16 N/A
5:35 am 05:35 Clear 36 2 33 0.4 89 89 SSE 6 9 29.89 1012 10 16 N/A
5:55 am 05:55 Clear 36 2 33 0.4 89 89 SSE 7 11 29.90 1012 10 16 N/A
6:15 am 06:15 Clear 36 2.3 33 0.5 88 88 SSE 7 11 29.89 1012 10 16 N/A
6:35 am 06:35 Clear 36 2 33 0.3 89 89 SSE 7 11 29.90 1012 10 16 N/A
6:55 am 06:55 Clear 35 1.7 33 0.4 91 91 SE 5 7 29.91 1013 10 16 N/A
7:15 am 07:15 Clear 36 2.3 33 0.7 89 89 SE 6 9 29.90 1013 10 16 N/A
7:35 am 07:35 Sunny 37 2.5 34 0.9 89 89 SE 6 9 29.90 1013 10 16 N/A
7:55 am 07:55 Partly Cloudy 36 2.2 33 0.7 90 90 ESE 3 6 29.91 1013 10 16 N/A
8:15 am 08:15 Partly Cloudy 36 2.2 34 1 92 92 ESE 6 9 29.91 1013 10 16 N/A
8:35 am 08:35 Mostly Cloudy 37 2.7 35 1.5 92 92 ESE 6 9 29.91 1013 10 16 N/A
8:55 am 08:55 Partly Cloudy 37 2.8 35 1.5 91 91 ESE 6 9 29.92 1013 10 16 N/A
9:15 am 09:15 Sunny 38 3.2 35 1.8 91 91 SE 6 9 29.92 1013 10 16 N/A
9:35 am 09:35 Sunny 40 4.4 36 2.4 87 87 SSE 6 9 29.90 1013 10 16 N/A
9:55 am 09:55 Sunny 41 5 37 2.7 85 85 SSE 8 13 29.90 1012 10 16 N/A
10:15 am 10:15 Sunny 43 6 38 3.1 82 82 SE 9 15 29.89 1012 10 16 N/A
10:35 am 10:35 Partly Cloudy 45 7.1 39 3.8 80 80 ESE 8 13 29.88 1012 10 16 N/A
10:55 am 10:55 Mostly Cloudy 47 8.5 38 3.5 71 71 SSE 16 26 29.87 1011 10 16 N/A
11:15 am 11:15 Cloudy 47 8.3 38 3.5 72 72 SE 14 22 29.87 1011 10 16 N/A
11:35 am 11:35 Mostly Cloudy 47 8.4 38 3.6 72 72 SE 14 22 29.88 1012 10 16 N/A
11:55 am 11:55 Mostly Cloudy with Light Rain 46 8 39 4 76 76 SSE 16 26 29.87 1011 10 16 N/A
12:15 pm 12:15 Cloudy with Light Rain 46 7.6 39 4.1 79 79 SE 9 15 29.87 1012 10 16 N/A
12:35 pm 12:35 Cloudy 46 8 40 4.5 79 79 ESE 12 19 29.86 1011 10 16 N/A
12:55 pm 12:55 Cloudy 47 8.2 41 4.8 79 79 ESE 12 19 29.86 1011 10 16 N/A
1:15 pm 13:15 Cloudy 47 8.2 41 4.9 80 80 SE 13 20 29.86 1011 10 16 N/A
1:35 pm 13:35 Cloudy 47 8.4 41 5.2 80 80 E 10 17 29.85 1011 10 16 N/A
1:55 pm 13:55 Cloudy 47 8.5 42 5.6 82 82 E 10 17 29.85 1011 10 16 N/A
2:15 pm 14:15 Cloudy 48 8.7 42 5.8 82 82 E 9 15 29.83 1010 10 16 N/A
2:35 pm 14:35 Cloudy 49 9.5 43 6 79 79 ESE 12 19 29.83 1010 10 16 N/A
2:57 pm 14:57 Cloudy 50 10 43 6 76 76 ESE 9 15 29.81 1010 10 16 N/A
3:15 pm 15:15 Cloudy 50 10 42 5.6 74 74 SE 14 22 29.80 1009 10 16 N/A
3:30 pm 15:30 Cloudy 50 10 43 5.9 76 76 ESE 15 24 29.79 1009 10 16 N/A
3:55 pm 15:55 Cloudy 50 10 43 5.9 76 76 SE 14 22 29.79 1009 10 16 N/A
4:15 pm 16:15 Cloudy 52 11 42 5.7 70 70 ESE 14 22 29.77 1008 10 16 N/A
4:35 pm 16:35 Cloudy 53 11.5 41 5.1 65 65 SE 12 19 29.77 1008 10 16 N/A
4:55 pm 16:55 Cloudy 51 10.8 43 6.1 73 73 ESE 12 19 29.77 1008 10 16 N/A
5:15 pm 17:15 Cloudy 52 11 43 6 72 72 SE 10 17 29.78 1009 10 16 N/A
5:35 pm 17:35 Cloudy 53 11.4 43 6.1 70 70 ESE 8 13 29.78 1008 10 16 N/A
5:55 pm 17:55 Mostly Cloudy 52 11.1 44 6.9 76 76 ESE 13 20 29.78 1009 10 16 N/A
6:15 pm 18:15 Mostly Cloudy 53 11.4 44 6.7 73 73 E 10 17 29.78 1008 10 16 N/A
6:35 pm 18:35 Mostly Cloudy 52 11 44 6.8 76 76 E 10 17 29.78 1009 10 16 N/A
6:55 pm 18:55 Cloudy 51 10.5 45 7 79 79 E 10 17 29.80 1009 10 16 N/A
7:15 pm 19:15 Mostly Cloudy 50 10.1 45 7 81 81 E 12 19 29.80 1009 10 16 N/A
7:35 pm 19:35 Cloudy with Nearby Thunderstorms 50 9.8 44 6.9 82 82 ENE 10 17 29.81 1010 10 16 N/A
7:55 pm 19:55 Cloudy 49 9.5 44 6.9 84 84 NE 10 17 29.81 1009 10 16 N/A
8:15 pm 20:15 Mostly Cloudy 48 9.1 44 6.6 85 85 NE 13 20 29.80 1009 10 16 N/A
8:35 pm 20:35 Mostly Cloudy 48 8.8 44 6.5 86 86 NNE 9 15 29.82 1010 10 16 N/A
8:55 pm 20:55 Cloudy with Nearby Thunderstorms 47 8.6 43 6.3 86 86 NE 8 13 29.84 1011 10 16 N/A
9:15 pm 21:15 Cloudy 47 8.3 43 6.1 86 86 N 9 15 29.86 1011 10 16 N/A
9:35 pm 21:35 Cloudy with Thunderstorms 46 8 43 6 87 87 NE 13 20 29.87 1011 10 16 N/A
9:55 pm 21:55 Cloudy 46 8 43 6 87 87 NE 10 17 29.87 1011 10 16 N/A
10:15 pm 22:15 Cloudy 46 8 43 6 87 87 NNE 9 15 29.89 1012 10 16 N/A
10:35 pm 22:35 Cloudy 46 7.8 43 5.9 88 88 N 10 17 29.89 1012 10 16 N/A
10:55 pm 22:55 Cloudy 46 7.6 42 5.7 88 88 NNE 6 9 29.90 1013 10 16 N/A
11:15 pm 23:15 Cloudy 45 7.3 42 5.5 88 88 NNE 7 11 29.90 1012 10 16 N/A
11:35 pm 23:35 Cloudy 45 7 42 5.4 90 90 N 5 7 29.90 1012 10 16 N/A
11:55 pm 23:55 Cloudy 43 6.1 41 5 93 93 NNW 6 9 29.92 1013 10 16 N/A

Powered by AerisWeather